Wind_Speed
6 6 6 7 7 6 6 5 5 5 6 7 8 8 7 6 7 9 9 9 9 9 9 7 6 5 6 9 12 11 10 10 14 13 16 18 16 14 14 13 12 10 7 5 0 1 3 4 3 1 0 3 4 1 1 2 2 3 3 4 1 1 1 1 1 2 1 1 6 6 12 10 4 10 13 10 18 22 23 23 20 18 17 16 12 11 11 10
7 6 6 7 7 6 5 5 5 6 7 8 8 8 7 6 6 8 8 9 10 11 10 8 7 4 4 7 9 8 8 9 13 17 19 16 14 14 13 12 12 11 9 7 4 3 5 7 5 2 2 4 3 2 2 2 2 1 3 3 0 2 1 4 5 5 4 2 5 8 14 12 6 5 6 4 10 15 16 16 17 18 16 13 12 13 13 12
7 6 6 7 6 6 6 6 6 7 8 8 8 8 7 6 6 7 8 10 11 10 10 10 9 5 5 9 8 7 6 7 15 19 17 14 13 13 12 12 12 12 10 8 7 6 7 7 4 0 4 3 2 3 3 3 3 2 4 4 1 3 4 9 9 7 7 4 5 8 13 14 10 6 7 9 10 11 9 8 12 16 14 13 12 13 15 15
7 7 6 6 5 6 6 7 8 8 8 7 7 7 6 6 6 7 9 11 12 10 11 13 13 9 8 10 6 4 2 5 16 18 14 13 13 12 12 12 12 12 10 7 7 7 7 6 4 5 4 1 2 5 5 4 3 4 4 2 2 3 5 7 9 7 8 7 5 10 13 13 12 10 10 13 9 6 7 10 12 14 13 12 12 13 15 17
8 7 6 5 5 6 6 7 8 8 7 7 7 6 6 6 6 7 9 12 15 10 9 13 16 15 12 9 6 4 1 1 11 14 12 13 13 11 10 11 12 10 8 5 5 5 5 6 5 5 1 3 4 4 4 6 5 4 4 5 5 5 4 4 8 8 7 8 8 11 11 7 6 11 9 9 6 4 9 12 12 13 13 12 13 14 15 17
7 7 6 5 5 6 7 7 7 7 7 6 6 6 6 6 6 7 7 10 14 12 7 7 11 14 14 13 11 10 7 2 9 13 11 12 12 10 9 11 11 9 8 5 3 4 6 6 3 3 3 3 4 4 5 8 6 3 2 7 9 8 5 3 6 7 7 6 7 8 9 10 11 11 9 11 12 12 13 12 12 12 12 12 13 14 15 17
7 6 6 6 6 6 7 7 7 7 5 5 6 6 7 6 7 7 6 8 11 12 8 5 5 7 8 9 10 15 16 8 11 11 9 11 11 10 10 11 9 7 9 6 3 3 7 9 2 2 5 4 4 3 6 9 9 6 2 2 7 8 6 5 5 6 4 4 7 12 12 11 11 9 9 16 17 16 14 12 13 13 12 13 13 14 15 15
7 7 7 7 7 7 7 7 6 6 5 5 6 6 6 6 7 7 8 10 10 11 11 9 6 2 3 4 5 14 17 12 12 10 9 10 10 10 9 8 8 9 10 6 4 3 6 13 10 6 5 3 3 2 5 8 8 5 3 2 5 5 4 3 4 3 1 3 10 14 13 10 12 13 12 17 17 15 14 13 13 13 12 12 13 14 13 13
8 8 7 7 7 6 6 6 6 6 5 5 6 6 6 6 7 7 10 12 11 11 13 14 10 4 4 4 7 11 12 11 11 10 10 10 10 11 9 9 12 12 9 6 4 3 5 11 11 7 5 3 4 3 4 3 2 1 4 4 4 4 4 4 4 3 1 5 13 12 10 13 19 16 11 17 18 15 15 14 13 13 13 12 12 12 12 12
8 8 7 7 7 6 6 6 6 5 5 5 5 5 6 6 6 7 9 12 13 12 12 14 14 10 6 7 12 10 9 11 10 9 10 11 11 10 9 13 16 14 11 7 5 5 7 9 8 7 6 5 4 2 3 3 2 1 3 3 4 4 3 5 6 4 1 4 12 12 7 16 21 9 5 17 20 17 17 15 13 12 13 12 11 10 10 10
8 7 7 7 6 5 6 6 6 6 5 5 5 5 5 6 6 6 6 8 10 11 12 11 11 13 10 14 19 10 10 12 9 10 9 9 12 10 11 16 17 17 15 10 8 8 8 7 6 6 4 3 3 3 4 4 3 2 3 2 0 1 2 4 7 6 4 0 9 15 10 15 15 2 8 22 22 19 19 17 15 14 13 12 11 10 9 10
8 7 7 6 6 7 7 6 6 7 6 5 5 5 6 6 7 7 7 6 5 7 10 11 11 9 8 17 22 13 12 14 10 10 9 9 11 10 12 14 16 18 17 14 12 9 9 7 6 5 3 2 2 3 4 3 3 2 3 2 3 5 4 2 3 7 7 0 8 16 6 6 6 2 16 26 23 21 19 18 16 14 13 12 11 9 9 8
8 7 7 7 7 8 7 7 7 7 6 6 5 6 7 7 8 8 8 8 7 5 6 9 11 9 9 14 17 13 13 15 10 9 8 9 10 10 10 11 13 17 18 18 16 13 12 10 8 9 7 4 4 3 2 1 3 1 2 3 2 6 5 5 2 4 6 1 9 12 0 6 3 7 22 26 24 22 18 18 16 13 13 11 10 9 8 7
7 7 7 8 8 8 8 8 8 7 6 6 6 7 7 8 10 11 9 8 9 9 6 6 5 8 13 12 12 13 13 13 10 8 8 8 9 9 8 8 11 14 16 16 16 16 15 11 9 10 10 7 3 3 2 2 2 2 1 3 3 4 4 7 3 3 3 2 8 8 2 6 4 9 23 26 24 22 19 18 16 14 13 11 10 9 8 7
7 8 8 8 8 9 9 9 9 8 8 8 8 8 9 11 11 11 12 10 9 9 8 7 5 7 11 10 10 12 11 11 11 11 10 9 8 7 6 8 10 10 12 12 11 11 11 12 14 12 9 7 3 2 3 4 3 3 3 3 4 3 4 8 5 2 2 3 5 5 2 5 4 9 20 24 23 21 20 18 15 15 13 12 10 9 8 6
7 8 8 9 10 11 12 13 15 14 11 9 7 6 6 7 7 6 9 10 8 8 8 8 7 8 8 6 8 12 14 14 13 11 9 9 8 6 6 7 8 7 9 11 10 7 5 9 14 15 13 8 4 3 4 5 5 4 3 2 5 3 4 6 5 1 2 2 2 3 3 3 4 10 16 19 20 20 19 17 16 14 13 12 10 8 7 5
8 8 10 12 14 14 16 18 22 21 18 16 15 12 7 4 3 2 3 5 7 8 8 7 5 9 9 6 8 13 18 17 14 10 7 8 8 7 6 6 7 8 6 6 10 7 5 6 6 8 12 8 3 4 4 4 4 4 3 1 3 3 3 4 5 5 5 3 3 2 3 5 5 10 16 16 16 18 18 17 16 14 13 12 10 8 6 4
8 10 14 16 15 14 14 16 19 21 21 20 19 20 18 13 7 4 3 2 6 8 8 7 4 5 8 11 11 11 15 17 16 12 7 6 7 6 6 6 8 8 4 3 8 8 7 6 5 2 6 7 5 6 4 2 2 3 3 2 4 4 4 4 6 6 6 5 5 5 4 6 4 8 13 15 15 17 18 17 16 14 13 11 10 8 5 3
9 13 15 14 12 11 10 10 12 14 13 11 11 12 16 19 18 16 14 11 10 8 4 10 10 3 1 13 14 8 9 16 17 11 5 4 5 6 6 6 6 7 5 4 7 10 6 5 7 4 4 5 4 5 5 5 2 4 4 2 4 5 5 6 7 7 5 5 7 6 5 5 5 7 10 15 16 15 17 17 15 14 13 11 9 6 3 2
10 14 12 9 9 9 8 6 5 4 5 6 4 3 5 9 12 15 22 25 22 15 9 11 12 6 3 12 17 10 6 12 17 14 8 6 6 6 7 6 4 6 5 2 3 7 7 6 5 1 3 5 4 2 2 4 3 3 3 3 5 5 5 7 8 8 5 3 7 6 6 7 7 9 10 16 16 13 16 16 15 15 12 9 6 3 2 1
12 12 8 8 8 9 8 6 3 2 4 5 5 6 5 4 5 7 15 21 20 18 17 16 13 10 9 11 17 15 8 9 16 18 13 9 6 5 8 8 6 6 6 1 4 5 8 7 2 4 5 4 5 4 3 5 3 2 3 4 6 4 6 10 8 7 5 4 8 9 7 10 8 8 10 15 12 10 15 15 14 13 10 7 5 1 1 2
11 9 8 9 9 8 8 8 9 9 9 10 10 14 15 13 12 11 11 12 12 14 15 18 18 15 12 10 11 15 16 14 16 21 20 14 9 6 8 9 6 4 6 3 5 5 7 4 5 6 3 4 4 3 4 4 3 3 1 2 4 4 6 10 7 4 5 3 7 10 7 9 9 6 9 13 10 8 14 15 13 12 9 6 2 2 2 4
10 8 8 9 10 10 9 8 8 8 7 6 6 10 14 14 12 11 9 7 8 10 12 16 19 19 17 12 10 12 18 16 14 23 26 19 14 10 8 8 5 5 7 6 5 4 5 2 6 5 4 4 4 5 7 6 5 3 2 2 4 5 5 6 6 5 6 4 8 10 7 7 5 2 5 9 11 10 11 13 10 8 6 2 1 2 3 8
8 7 8 9 9 9 9 8 6 4 3 3 2 4 7 8 8 7 6 5 4 7 10 12 16 19 17 16 14 10 11 14 13 21 27 24 17 9 5 6 5 5 6 5 8 7 2 5 5 6 4 1 2 6 7 6 6 3 1 1 4 7 6 8 8 8 8 5 5 5 6 5 2 4 3 3 8 11 11 11 8 5 4 2 2 4 5 10
7 7 7 7 7 6 7 8 8 6 4 4 1 2 3 4 3 3 3 4 2 5 8 8 11 16 16 18 16 5 4 12 16 20 23 25 18 7 4 6 5 5 5 4 7 6 0 4 4 6 5 5 4 3 3 3 4 6 3 4 5 8 9 12 10 8 7 5 2 4 4 5 3 2 5 3 4 7 8 8 8 8 6 3 4 5 7 12
6 6 6 6 5 5 5 7 9 8 6 5 2 1 2 4 2 0 1 4 3 5 6 7 7 12 15 19 17 3 2 8 13 19 22 21 17 8 5 5 4 3 2 2 3 1 2 5 5 4 4 7 6 2 1 3 4 4 5 4 5 7 10 15 12 6 2 4 4 3 0 5 5 3 5 5 4 4 5 6 8 8 6 5 5 6 9 13
5 5 4 4 4 5 5 6 9 8 6 6 4 1 1 3 3 2 1 4 5 4 5 7 6 9 11 16 18 7 1 9 9 16 22 17 13 10 6 4 3 2 2 2 3 1 2 6 7 6 5 6 4 3 3 5 5 4 6 2 6 9 11 15 11 4 3 4 5 2 1 4 4 4 3 5 6 4 4 5 4 5 6 5 5 8 12 16
4 4 2 1 2 4 5 7 8 8 8 6 4 2 0 1 3 1 4 4 4 4 4 5 5 9 7 10 19 12 3 9 7 10 18 15 11 9 7 3 1 4 3 4 1 3 1 2 2 4 5 4 2 4 5 4 3 7 7 3 6 8 12 13 8 5 4 1 5 5 2 2 5 3 1 4 5 3 4 4 3 4 4 6 8 9 15 20
3 2 1 2 4 6 7 8 8 7 9 6 3 2 2 2 3 2 5 2 3 3 4 5 5 10 9 6 15 13 6 8 6 7 13 15 11 5 4 3 2 2 2 5 4 4 1 1 3 3 3 2 4 7 5 5 3 7 6 5 7 7 10 9 5 4 1 1 5 4 3 1 5 4 1 2 2 3 3 3 3 1 5 9 9 11 17 22
2 2 3 4 6 7 8 8 7 7 8 6 2 2 3 3 3 4 4 0 1 3 5 5 3 9 12 6 8 11 7 5 8 10 12 14 18 14 5 3 8 3 2 5 2 3 2 1 2 2 2 3 5 8 6 7 6 6 6 6 7 6 6 4 1 1 2 1 5 5 0 2 4 4 2 2 2 5 4 2 2 2 5 7 10 14 17 19
1 3 5 6 8 9 9 8 7 7 7 5 2 2 2 2 4 6 3 1 1 4 5 4 3 6 9 5 4 9 6 6 11 12 9 9 17 20 10 4 9 6 3 6 4 4 5 2 1 2 3 2 3 5 5 1 1 3 4 4 6 6 4 4 4 3 2 5 6 4 3 4 3 5 3 4 4 5 5 3 4 2 3 8 12 14 16 19
3 5 7 8 9 9 9 8 7 6 6 4 3 2 2 3 5 3 1 3 1 3 3 2 4 5 6 5 4 6 4 5 10 8 5 4 6 9 8 3 3 4 4 4 4 6 4 2 3 3 3 2 2 3 5 5 6 5 4 5 6 5 5 5 5 4 2 6 5 2 8 5 5 5 4 5 5 6 8 8 4 2 7 12 13 14 19 26
4 6 8 9 9 9 8 7 6 5 4 3 2 1 4 5 2 1 3 3 0 1 1 2 4 5 4 5 5 6 3 2 7 7 4 3 4 3 4 4 3 2 2 3 3 6 4 5 4 3 2 1 2 2 4 4 4 4 2 3 3 3 5 6 4 4 6 7 3 4 5 5 5 3 5 6 8 11 11 7 5 10 10 11 15 19 28 35
5 6 8 9 8 7 5 4 4 3 3 1 2 3 7 5 1 1 2 3 1 3 2 1 5 6 4 3 2 4 4 2 4 6 4 4 5 3 4 7 6 3 1 2 2 2 2 5 4 1 2 3 2 1 3 2 2 3 2 5 3 2 1 4 3 3 7 10 7 3 1 4 3 2 6 7 8 7 4 2 6 15 17 19 24 28 35 38
5 7 7 7 6 4 3 3 3 3 2 2 4 6 6 2 2 0 1 4 2 3 4 3 4 5 5 3 2 3 3 2 4 5 4 3 2 2 2 4 5 3 2 2 2 0 0 5 6 3 2 1 1 2 3 3 1 4 2 4 1 3 4 3 4 5 6 9 8 3 3 4 3 3 3 3 5 6 7 9 15 23 26 28 29 32 36 36
6 7 8 8 7 6 6 4 3 3 1 3 7 6 2 2 1 1 1 2 1 2 5 5 5 5 5 4 3 4 2 2 3 4 3 2 1 1 1 1 3 3 3 2 1 1 1 5 7 5 4 2 1 2 1 2 1 2 2 1 4 4 6 2 4 4 3 6 6 2 3 3 4 4 2 5 5 7 10 16 22 26 27 28 29 32 35 34
5 9 12 11 9 9 7 6 5 2 2 5 7 3 2 1 1 1 2 2 1 1 2 3 3 3 3 3 4 6 4 2 3 3 2 1 0 0 1 1 2 2 2 2 1 1 1 5 7 4 4 3 0 1 4 2 2 1 1 4 2 2 4 2 2 4 4 6 5 2 4 3 3 3 3 6 7 9 11 15 20 23 26 28 30 33 34 34
6 10 13 13 11 8 6 7 5 3 7 9 7 2 2 1 0 1 2 2 2 1 4 3 1 1 2 2 3 6 5 3 4 4 2 2 1 1 1 1 1 3 2 1 0 1 1 4 8 4 3 3 2 3 5 3 1 3 2 2 2 1 2 1 1 3 4 7 6 5 7 3 3 3 4 6 6 8 10 12 15 18 22 25 29 31 33 34
4 7 11 11 9 8 5 3 3 5 9 9 3 1 2 1 1 2 2 2 1 2 4 1 1 1 1 0 2 4 3 2 3 3 1 1 2 1 3 1 1 3 5 2 1 2 0 1 6 5 1 2 3 2 1 3 3 3 2 2 2 2 3 1 1 2 3 6 7 8 9 2 4 3 3 4 5 7 11 13 11 13 19 25 27 30 33 33
2 4 7 7 6 7 6 3 5 9 9 5 3 2 1 1 0 2 2 1 0 2 2 1 0 2 1 1 1 3 2 1 2 2 1 1 3 1 3 2 1 4 6 2 1 2 1 1 5 6 4 3 2 1 4 3 1 2 2 3 3 1 1 2 2 2 2 4 4 7 9 3 2 1 4 5 9 10 12 12 10 14 23 26 28 31 32 33
4 4 5 6 5 4 4 7 10 10 6 2 3 2 1 2 2 1 4 3 2 3 2 2 2 1 0 2 2 2 2 2 2 1 2 2 2 1 1 2 0 3 4 2 0 1 1 2 4 5 4 3 4 4 4 4 4 4 2 3 3 1 0 2 5 2 2 2 3 4 10 7 1 3 4 7 10 12 14 12 11 18 25 27 30 33 33 34
6 4 4 7 7 4 8 9 9 6 4 3 3 3 2 3 2 2 3 3 2 2 2 2 1 1 1 1 2 1 2 2 2 1 1 1 1 2 1 1 1 1 1 1 1 1 0 1 3 5 5 6 7 4 2 2 2 3 2 2 3 3 3 2 6 4 1 3 4 4 9 7 2 4 6 11 14 16 16 15 16 21 25 28 32 34 34 36
11 8 5 5 5 6 10 8 6 6 4 2 2 4 3 2 2 2 3 3 2 2 2 1 0 1 0 1 1 2 1 1 2 1 1 2 2 3 2 0 1 1 1 1 1 2 2 0 2 5 5 5 5 4 3 2 3 2 2 2 2 3 3 4 5 2 1 4 3 3 8 7 2 4 11 17 20 19 16 17 21 23 26 30 33 34 35 35
16 16 14 9 3 3 6 4 2 3 2 2 3 4 3 3 4 2 1 3 2 1 2 1 0 2 1 1 1 2 2 1 1 1 1 2 2 2 2 1 1 1 0 1 1 3 2 1 2 5 7 6 5 4 5 3 2 1 4 2 2 3 1 1 2 1 1 6 6 4 9 9 2 7 14 18 18 15 14 19 23 23 26 29 31 33 33 31
10 13 19 19 12 9 8 6 8 5 2 3 4 3 2 4 4 3 1 2 2 1 1 1 1 1 1 0 0 2 1 0 2 2 2 2 3 2 3 3 3 2 1 1 1 1 1 1 1 2 4 7 7 6 6 4 3 3 3 3 3 4 3 1 1 1 4 6 4 5 10 13 10 12 17 18 14 11 15 22 24 24 26 28 30 31 29 28
5 4 9 15 19 19 15 10 10 8 4 4 4 3 3 2 1 1 2 2 2 2 1 1 1 1 2 3 2 3 2 1 2 2 2 3 3 2 3 4 3 3 1 1 1 1 1 1 2 5 6 6 8 9 6 5 7 9 10 10 6 5 5 2 0 4 6 5 6 9 11 15 15 17 19 17 12 10 13 19 23 24 25 28 30 29 26 27
5 2 2 5 10 14 13 10 9 7 4 4 2 1 2 1 1 1 1 1 2 2 1 1 1 1 2 3 3 3 4 3 2 2 2 4 4 3 3 4 3 3 2 0 0 2 2 2 5 6 8 9 9 11 10 8 9 11 12 12 8 4 4 4 5 10 6 5 11 13 10 14 17 18 19 15 9 9 13 18 22 23 25 29 31 28 26 29
5 3 3 4 3 3 5 6 8 9 6 4 3 1 2 1 1 1 1 1 2 2 1 1 3 2 1 1 1 2 4 5 3 3 2 3 3 5 4 3 2 2 1 1 0 2 3 3 5 4 6 9 9 11 12 10 8 8 9 13 11 4 7 8 12 13 6 5 14 15 15 16 17 16 16 13 12 14 19 24 27 27 28 32 31 27 26 31
11 8 6 6 5 4 5 4 6 10 8 4 3 2 2 3 1 2 1 2 3 2 2 1 3 3 2 2 3 1 3 3 4 5 2 2 3 3 3 2 1 2 2 1 1 1 2 3 4 2 7 10 10 12 12 8 7 9 12 14 12 6 8 11 12 10 6 9 13 14 17 18 15 12 12 15 19 24 28 31 30 28 30 33 30 26 27 32
10 8 8 12 11 8 7 4 3 6 5 4 3 1 1 3 2 2 0 2 1 2 2 0 4 6 4 3 3 3 5 3 4 6 2 1 3 2 1 2 1 1 1 0 1 1 1 3 3 2 5 9 8 9 9 7 8 13 15 13 11 9 6 7 7 6 5 9 12 14 17 16 12 12 14 19 26 30 30 30 29 28 31 33 29 26 29 34
11 11 13 14 8 4 3 3 2 4 3 4 2 1 1 1 2 1 0 1 1 1 1 1 3 5 3 1 3 5 6 4 7 10 7 5 4 3 2 1 1 3 3 1 1 2 1 3 4 5 4 8 6 4 9 11 10 11 11 9 9 8 4 3 4 4 4 9 14 14 14 12 10 12 16 23 28 29 27 27 28 30 34 32 26 26 33 36
14 13 10 9 5 3 3 3 3 4 2 2 1 2 0 1 1 1 2 1 1 1 1 2 2 3 3 2 4 6 8 9 10 12 10 9 9 7 7 6 3 2 2 1 0 0 2 1 3 3 4 8 7 6 9 10 9 7 5 4 5 5 4 3 5 5 6 8 10 11 11 11 12 12 14 17 21 24 25 26 28 32 34 29 25 29 35 37
Wind_Direction
117 106 102 98 93 93 92 84 72 57 39 26 21 26 42 56 48 38 33 31 23 12 12 15 29 64 98 107 104 94 80 43 12 22 33 24 18 10 6 3 5 6 356 351 331 102 57 82 104 101 352 267 255 230 37 354 353 13 77 92 44 117 44 310 79 34 74 314 340 34 84 92 59 88 109 81 67 79 79 76 78 77 75 72 68 66 63 62
123 111 104 96 90 87 81 74 60 41 29 19 19 31 46 58 52 34 30 30 17 9 16 20 25 47 114 123 120 106 85 39 21 35 34 25 21 16 15 14 13 16 14 23 35 33 63 77 91 133 276 266 236 174 118 35 24 51 100 88 108 172 69 46 69 35 38 21 359 49 83 82 29 46 111 89 64 78 80 78 82 79 74 73 67 66 65 64
121 110 103 94 87 78 69 61 48 35 25 18 25 43 57 66 56 36 35 31 20 21 34 35 30 37 132 137 129 115 98 38 26 32 31 30 28 23 34 37 31 33 33 40 50 54 65 69 74 180 275 258 185 117 85 29 7 13 77 72 261 166 84 54 59 46 46 11 351 63 82 70 44 50 113 115 85 66 73 86 89 84 78 74 69 68 66 65
117 107 100 93 83 70 59 51 44 33 26 26 39 58 71 71 57 44 45 39 32 40 52 52 48 58 114 131 109 97 140 25 20 20 27 34 29 30 45 49 46 44 41 46 51 54 52 46 22 321 282 190 95 86 59 17 28 27 76 100 282 122 89 51 61 58 47 29 45 94 89 73 61 70 124 132 93 53 84 98 101 99 93 85 80 75 71 69
113 104 99 93 79 64 52 47 42 36 36 43 57 73 80 68 56 52 54 47 41 52 70 64 61 68 91 96 54 15 226 342 10 18 31 35 30 30 44 52 47 39 42 53 41 34 11 5 355 334 6 77 37 77 36 19 70 56 71 80 49 86 99 50 65 65 55 57 81 96 94 106 88 67 101 139 116 127 121 111 117 114 109 102 91 83 78 73
109 102 100 91 75 60 49 47 43 46 50 60 75 81 78 63 55 56 56 48 39 45 67 71 67 71 79 73 48 41 85 91 6 21 32 31 29 32 50 47 32 20 26 42 39 37 10 353 298 318 55 71 46 89 22 16 70 90 58 65 66 85 104 74 66 75 71 66 89 111 115 119 105 76 87 109 115 135 134 129 128 119 117 109 97 89 80 77
103 100 97 85 71 57 50 50 50 58 66 76 82 78 70 55 48 48 43 38 33 41 59 68 62 67 76 68 42 48 68 58 20 28 27 24 25 36 53 39 19 7 5 12 55 77 40 33 52 73 71 75 56 67 26 37 76 106 139 84 90 86 96 98 76 97 93 80 113 125 129 123 115 111 105 111 123 137 139 139 130 120 117 108 100 92 82 78
101 99 91 79 67 58 54 55 58 66 75 79 78 69 56 43 42 46 47 44 41 51 61 58 49 56 74 62 42 46 47 33 25 31 25 23 24 32 41 25 12 1 356 13 57 91 59 52 56 63 75 74 74 71 30 47 62 85 149 155 121 101 116 130 92 117 78 113 130 119 123 140 138 134 129 133 142 146 143 141 132 124 117 108 100 95 88 82
100 96 86 76 64 60 58 59 64 68 74 75 70 56 39 36 45 58 61 55 57 65 65 58 47 43 62 78 76 50 26 17 22 27 30 29 28 30 25 22 20 9 14 53 74 95 87 63 55 63 94 98 100 87 28 61 46 48 157 145 138 143 161 175 152 160 355 122 136 120 115 142 139 127 133 154 156 153 148 141 136 129 118 111 102 96 92 85
100 94 82 73 63 61 60 60 65 63 62 58 51 38 28 38 54 69 69 59 62 69 68 60 50 52 82 95 76 53 13 19 27 32 36 32 36 39 35 37 33 27 42 76 106 110 97 75 67 83 99 93 88 54 28 118 152 160 145 113 135 156 187 177 160 163 142 135 149 142 134 154 153 130 145 168 162 155 151 145 143 134 123 118 111 104 96 87
101 93 82 73 64 59 59 58 56 46 41 40 36 30 33 48 56 62 60 53 61 66 63 60 58 63 82 79 66 48 15 27 36 40 39 34 41 46 47 45 40 42 51 74 100 104 97 81 81 99 95 77 70 51 61 93 113 135 123 64 237 262 291 177 159 178 175 147 158 148 144 167 175 187 163 168 165 159 154 149 147 139 133 128 119 111 98 89
100 91 79 69 60 56 55 47 36 29 31 37 37 39 48 54 54 55 52 50 60 71 63 58 58 54 65 63 53 35 23 32 38 40 38 36 45 56 56 50 45 50 56 69 84 89 86 60 47 80 87 108 105 64 66 70 56 77 122 98 306 349 334 227 159 191 184 248 153 140 130 202 216 188 159 164 164 161 155 150 150 145 143 138 129 120 104 92
97 83 69 60 54 52 46 35 26 26 37 48 52 58 61 59 62 64 62 62 65 89 90 61 50 42 60 61 43 31 31 33 37 43 42 34 43 59 62 59 54 57 60 66 73 72 68 52 46 69 66 88 124 88 81 82 45 325 151 109 358 10 333 289 347 178 167 166 170 149 199 265 259 164 161 165 165 162 157 153 154 150 149 148 140 130 116 103
89 72 60 55 53 50 44 39 33 32 48 62 66 67 69 72 78 76 69 70 74 86 99 75 55 50 66 70 44 35 36 35 42 50 47 32 31 46 63 77 72 67 63 62 65 64 61 53 64 71 48 50 110 104 60 19 26 329 338 58 43 41 302 289 320 159 140 278 194 163 260 257 246 176 167 170 170 165 160 158 158 157 157 154 147 136 124 110
78 64 56 56 57 57 58 60 58 61 73 75 72 72 77 86 92 84 71 70 83 90 91 86 90 76 71 69 43 37 40 42 40 31 27 24 21 36 69 84 82 76 60 48 43 53 60 54 64 63 33 36 75 74 29 5 359 20 38 334 346 48 297 294 302 159 132 274 198 155 258 253 233 186 169 172 176 168 160 160 162 162 161 158 152 142 131 117
70 59 58 66 71 76 82 84 82 80 82 76 68 69 81 95 96 90 72 65 82 100 101 92 78 70 68 52 39 38 36 32 26 17 14 23 30 44 63 63 60 50 43 38 21 26 56 48 57 52 37 41 54 67 52 21 348 2 76 259 302 350 327 314 307 332 56 302 233 189 243 258 225 188 172 173 176 168 159 160 164 163 163 160 155 148 139 128
64 64 75 84 86 90 92 93 91 87 83 78 71 64 66 94 101 87 60 59 92 105 100 103 89 69 60 38 29 22 21 22 17 16 23 37 46 50 48 34 25 4 352 12 9 27 70 51 56 46 35 35 9 71 70 4 329 325 23 28 290 302 319 321 301 313 13 8 293 271 242 251 228 182 175 179 179 170 163 164 165 164 165 162 156 150 135 118
69 85 97 95 88 86 90 95 96 93 86 79 73 69 68 75 84 87 81 114 114 103 81 60 59 87 50 17 10 357 11 24 14 9 19 38 47 35 18 11 13 4 359 31 8 31 74 51 59 69 23 25 11 60 95 247 245 270 317 332 308 320 300 298 302 307 356 2 308 310 286 262 233 185 181 184 184 176 168 167 168 168 167 164 156 145 129 98
87 107 107 94 76 75 87 98 101 97 81 67 67 73 74 76 79 77 79 87 85 83 61 29 34 100 12 3 9 349 11 28 14 6 1 1 20 12 357 343 351 12 48 81 13 21 64 46 47 59 354 349 356 65 141 211 231 253 273 285 291 311 289 279 292 297 339 346 297 290 280 265 218 204 195 185 186 180 171 168 168 170 164 158 150 140 136 102
107 119 109 75 58 68 83 99 110 90 33 21 30 73 95 78 71 64 65 71 70 69 67 45 42 64 42 11 18 12 12 27 20 18 7 338 335 353 12 4 9 28 29 101 28 18 62 65 43 112 265 293 301 336 189 245 269 264 297 328 296 291 288 288 290 297 344 359 284 273 271 276 238 212 198 184 183 173 166 167 168 168 158 151 145 133 149 58
119 122 97 62 60 70 77 79 78 35 26 44 71 95 110 91 81 74 67 68 67 66 62 54 50 48 37 22 22 23 24 32 29 28 22 3 343 349 22 29 48 32 348 95 104 36 62 72 349 257 247 290 296 294 329 315 304 297 290 311 315 295 284 290 285 296 359 21 286 284 286 283 258 213 190 178 177 175 173 172 166 158 143 133 125 127 223 343
125 117 86 70 70 74 76 74 74 79 77 76 84 93 94 91 93 92 85 81 69 60 53 47 48 44 36 30 22 21 27 28 22 22 22 21 30 33 30 40 58 24 344 33 79 30 46 54 298 288 299 338 332 349 28 2 6 28 340 330 325 304 293 291 275 289 352 7 288 292 292 279 266 204 176 174 173 177 176 166 151 142 131 124 107 301 293 8
127 108 89 81 78 75 72 71 72 82 79 57 66 90 95 93 91 82 81 95 75 51 40 37 37 32 30 28 11 12 32 33 8 8 13 15 26 31 31 43 49 24 11 36 78 67 52 324 288 311 346 -0 353 15 40 26 18 40 56 36 300 304 330 298 290 317 313 266 262 287 294 282 277 137 148 175 163 141 142 143 138 137 138 139 32 356 28 24
127 106 96 87 82 77 70 64 57 65 44 9 45 111 111 99 91 79 68 88 82 39 34 32 27 25 22 16 4 1 37 40 14 6 11 11 12 17 26 29 36 35 21 50 86 88 114 250 292 339 353 43 17 10 39 38 357 320 166 113 280 299 301 270 289 321 311 276 253 301 318 299 261 133 137 169 144 127 129 134 135 149 166 168 85 61 36 13
124 112 103 86 81 74 63 51 42 41 19 11 16 194 162 140 109 70 56 80 51 359 16 18 16 18 13 7 4 1 62 38 24 12 10 13 12 14 23 16 35 35 5 47 81 78 295 269 341 1 355 48 74 22 47 86 355 318 247 213 266 296 294 287 308 338 340 320 317 25 353 300 296 181 188 175 128 131 143 149 159 168 161 128 77 45 10 359
125 124 108 80 71 58 49 35 29 25 14 24 18 244 204 209 210 255 64 72 4 327 355 360 360 8 8 7 7 33 109 21 26 22 16 16 16 28 25 3 42 46 314 46 72 102 329 344 27 40 13 45 59 5 250 118 54 321 246 227 288 311 306 301 314 343 342 279 290 27 289 266 307 296 216 176 140 143 157 173 182 167 117 79 53 22 4 356
134 133 114 76 62 43 32 19 16 13 12 18 15 37 204 233 221 236 66 52 -0 323 353 353 353 2 10 17 22 66 134 336 9 28 21 16 21 50 54 357 42 13 258 93 36 271 304 355 18 37 36 48 38 321 244 129 93 272 252 286 322 314 302 297 304 297 238 267 308 339 210 253 289 288 241 141 125 143 188 208 186 132 91 55 29 16 2 348
143 143 138 73 24 10 2 358 359 5 9 5 12 46 23 192 170 149 92 74 341 333 355 343 359 10 17 34 37 68 101 349 8 18 17 21 25 56 69 55 175 272 287 114 122 274 290 355 358 46 38 23 333 271 236 139 121 257 260 302 305 292 288 289 291 270 246 282 306 315 12 303 270 279 46 104 120 156 211 216 158 116 64 28 18 1 346 340
158 172 211 287 320 332 337 340 343 353 359 357 17 36 37 110 145 81 80 109 312 339 350 343 353 359 359 28 37 46 55 27 23 357 15 29 30 57 99 51 46 272 343 94 160 240 272 219 213 127 77 323 277 268 240 162 199 270 289 305 293 284 283 281 264 264 294 152 253 290 28 344 283 302 61 119 127 173 215 203 163 92 26 21 4 342 340 345
196 238 279 294 307 318 321 326 332 342 350 354 8 31 59 90 106 63 47 318 327 337 328 350 342 339 354 14 20 15 25 27 6 6 18 30 35 46 86 38 24 44 18 35 97 231 284 268 228 150 155 250 271 284 261 191 226 302 345 330 303 293 291 288 202 117 65 276 245 231 152 24 318 295 228 195 182 172 180 231 274 326 16 6 348 347 352 354
287 287 294 298 300 307 313 318 322 331 344 351 346 8 63 47 64 84 74 273 336 339 331 349 340 344 5 25 359 348 355 356 359 14 14 13 29 33 40 19 7 27 14 1 6 315 327 350 271 258 248 275 315 312 303 247 309 5 21 354 329 317 332 4 9 43 52 277 251 231 347 9 275 262 239 222 218 172 165 202 236 256 352 352 350 357 359 355
311 298 294 297 295 299 305 307 314 323 337 354 354 352 108 43 29 82 260 307 329 347 352 323 325 349 359 12 5 336 335 346 354 17 29 26 40 31 40 59 352 13 359 334 335 331 319 269 287 299 274 303 26 346 331 355 25 34 36 23 4 341 351 358 345 352 298 254 239 352 1 344 242 245 221 211 215 204 202 187 156 24 356 354 356 358 357 355
301 299 300 302 296 299 301 302 318 327 329 2 28 36 84 74 36 243 284 333 301 310 350 283 308 328 344 15 3 330 338 344 345 4 29 64 71 40 39 45 44 57 320 307 341 350 326 299 324 343 302 321 80 26 327 324 356 1 25 64 54 21 345 324 311 320 298 267 248 31 -0 295 279 267 206 210 209 208 205 170 71 10 354 353 358 0 357 355
318 326 327 324 317 310 308 315 334 346 344 35 101 60 62 76 203 249 300 291 284 335 339 292 321 339 18 49 340 336 12 329 340 12 12 35 43 8 352 1 16 51 12 340 355 356 330 307 301 247 312 352 46 177 208 215 296 284 156 122 112 117 206 266 255 273 294 289 294 347 307 243 273 249 205 207 195 178 157 115 8 353 356 0 0 1 357 353
3 358 351 353 357 349 9 18 15 38 55 113 83 61 75 133 239 80 284 269 309 337 312 317 3 17 13 353 310 18 50 307 338 31 24 41 59 356 346 339 349 31 63 12 316 248 317 275 256 241 280 316 323 230 171 99 314 269 116 91 67 177 178 217 226 227 268 289 290 295 245 217 232 254 205 156 128 85 30 358 355 356 359 0 360 359 355 350
27 21 22 24 30 43 53 54 56 54 117 126 71 57 122 178 213 145 277 300 323 309 315 343 29 36 350 325 330 6 47 264 329 20 25 62 116 332 12 288 319 25 87 105 294 324 0 278 276 310 308 238 173 259 238 116 256 311 55 262 247 176 147 180 266 271 293 285 275 246 252 289 329 318 37 65 42 23 5 357 358 356 357 -0 359 355 351 347
37 37 40 45 54 57 65 76 74 66 147 106 81 81 186 142 126 190 308 333 255 271 24 25 19 23 346 325 320 332 346 324 333 2 356 353 77 25 0 310 339 30 104 131 276 223 180 282 287 288 280 271 128 316 291 241 154 78 247 242 255 87 101 113 282 315 318 279 271 216 239 287 344 317 356 28 11 357 357 356 352 354 1 360 353 349 346 344
48 48 50 52 56 59 79 88 83 117 110 87 77 89 103 69 264 254 311 334 268 343 64 68 307 54 31 347 300 307 336 351 344 -0 -0 329 342 117 105 330 13 35 27 74 311 258 149 297 291 254 226 284 8 18 314 305 111 137 200 187 91 22 312 31 322 288 287 283 286 274 268 258 187 248 337 9 4 353 348 347 350 -0 4 354 346 346 344 343
33 51 49 43 52 61 66 80 108 112 91 76 75 98 95 131 310 330 320 316 289 70 66 70 276 22 39 65 282 299 332 354 332 348 24 348 324 119 112 58 299 356 357 27 183 267 79 267 285 290 310 326 1 37 280 290 346 41 33 20 62 171 202 201 221 202 251 278 285 293 295 258 193 252 8 14 353 358 350 348 358 5 357 348 346 345 343 343
48 70 47 33 50 56 46 66 89 80 72 80 131 135 118 160 275 10 25 347 0 83 69 223 75 18 330 334 308 302 332 310 295 322 327 344 330 334 91 80 286 317 334 348 174 287 343 191 262 298 347 4 321 256 195 210 264 34 10 314 314 304 216 257 254 173 191 260 272 303 299 259 169 38 63 21 357 2 355 353 3 358 351 348 346 345 344 344
86 79 47 34 34 36 65 72 61 61 66 84 101 87 84 140 161 42 43 43 72 87 107 164 136 119 299 342 314 292 331 317 301 313 302 338 6 321 10 89 255 311 338 3 8 316 324 216 256 300 331 311 260 233 213 211 193 172 192 229 231 243 304 299 282 227 143 220 233 284 287 277 157 92 54 18 0 356 359 6 3 351 348 347 346 346 345 343
81 74 26 28 29 59 98 72 36 41 80 80 73 83 101 134 137 50 37 50 65 57 72 120 130 102 133 296 296 318 348 311 293 331 301 268 214 228 253 34 355 302 12 348 287 322 50 220 263 273 266 266 270 271 290 282 191 154 186 203 174 151 142 208 266 276 246 252 247 253 276 279 149 109 29 12 354 348 2 12 357 347 348 347 346 345 343 341
70 59 23 28 44 83 95 70 19 33 69 99 108 86 85 114 102 42 19 30 30 17 37 59 61 44 83 226 0 351 329 291 258 257 280 272 252 222 215 323 322 218 95 313 314 4 2 301 292 282 270 273 289 313 337 1 57 52 271 232 165 176 178 197 226 262 305 255 243 258 274 270 145 65 10 359 346 346 2 4 352 347 347 347 345 342 340 339
72 57 44 47 68 92 88 98 100 67 69 124 87 57 59 71 65 57 17 16 16 44 58 39 43 36 313 189 122 237 261 331 286 277 302 263 253 230 206 197 224 220 180 226 340 11 329 268 336 325 320 323 328 336 325 325 49 263 261 269 207 199 172 272 232 62 296 239 207 225 272 273 301 11 357 349 344 351 359 352 349 348 346 346 343 338 337 338
76 58 49 55 74 88 86 117 132 124 151 117 73 46 60 56 45 54 63 30 28 72 86 354 311 322 301 56 23 272 277 252 273 321 358 282 265 247 212 198 205 215 256 246 233 30 262 242 326 324 311 311 308 307 306 306 310 285 277 301 275 209 180 254 287 254 264 254 219 218 265 283 313 345 343 342 348 356 352 345 345 346 344 342 338 335 335 338
81 65 45 52 68 79 81 92 107 113 144 124 71 38 60 54 11 37 40 31 26 31 60 340 299 300 351 25 3 311 298 231 262 320 334 283 279 269 229 217 219 229 259 283 261 153 147 271 233 211 224 253 269 274 287 315 310 299 297 293 274 213 196 184 180 251 262 292 281 256 267 294 317 333 335 340 352 351 342 341 341 341 341 338 334 332 333 335
78 54 24 50 62 71 71 68 79 98 143 136 100 53 78 56 305 8 12 13 26 17 29 13 11 21 4 13 13 307 296 317 300 282 285 260 261 296 275 229 231 259 239 180 347 113 81 312 263 233 235 247 262 276 290 308 297 289 292 289 277 221 189 178 224 254 277 323 285 279 305 317 317 327 332 339 354 343 335 338 338 337 336 335 332 329 330 333
91 88 87 99 92 72 60 51 68 83 95 111 113 126 117 74 17 15 316 344 12 25 46 5 -0 22 167 168 76 291 305 340 321 256 277 272 282 333 319 237 209 241 196 95 22 122 109 263 252 242 264 268 274 283 290 296 285 272 278 287 288 247 194 207 238 253 265 270 274 297 326 318 312 325 333 340 348 337 332 332 332 331 332 332 330 328 330 332
111 113 89 89 104 115 110 97 86 82 74 78 90 82 112 109 81 252 254 10 359 2 57 34 304 317 262 179 124 221 279 330 312 284 281 280 289 332 323 287 234 220 196 88 293 151 125 255 263 271 279 279 277 278 285 291 288 289 288 291 297 274 219 225 245 259 264 259 273 306 317 308 313 330 334 338 337 330 327 328 328 329 330 329 327 326 329 332
117 123 116 106 95 88 95 91 81 84 59 43 75 68 94 122 156 253 290 68 0 319 25 31 278 292 272 196 160 219 235 209 239 259 245 280 302 290 239 278 313 284 283 70 311 41 122 277 318 14 303 291 277 269 284 293 290 295 294 292 300 297 260 238 258 285 297 285 295 314 309 304 321 341 337 334 332 329 327 326 327 329 328 326 325 327 330 331
114 123 125 114 89 38 57 56 63 95 48 12 75 158 334 110 178 218 69 111 171 218 273 254 287 307 314 229 209 244 256 242 249 264 263 253 264 252 233 276 5 346 320 292 325 24 107 289 343 35 336 296 279 287 307 308 301 296 296 302 306 301 284 239 253 266 285 299 308 313 308 308 330 343 335 329 330 331 327 324 326 327 325 324 325 328 330 329
115 123 126 112 86 10 20 22 31 75 66 332 114 148 157 153 182 102 65 292 194 148 274 291 321 335 344 320 282 282 295 296 287 287 284 264 260 264 272 282 297 288 258 199 263 289 114 327 328 12 322 291 299 320 309 309 316 308 296 302 298 295 303 285 273 285 298 305 310 309 308 319 333 336 328 326 332 330 324 322 324 322 321 322 326 329 328 326
Height
1526 1526 1526 1526 1525 1526 1526 1526 1526 1526 1525 1525 1525 1524 1524 1523 1523 1523 1522 1522 1522 1521 1520 1520 1519 1519 1519 1519 1519 1519 1519 1518 1518 1516 1515 1516 1517 1517 1516 1515 1514 1513 1513 1512 1512 1512 1511 1511 1511 1512 1513 1513 1513 1512 1513 1513 1513 1513 1515 1520 1523 1524 1525 1523 1523 1523 1522 1523 1522 1521 1520 1521 1524 1525 1525 1527 1528 1530 1531 1532 1534 1535 1535 1536 1536 1536 1534 1533
1526 1526 1526 1526 1526 1526 1526 1526 1526 1526 1526 1525 1525 1524 1524 1524 1524 1523 1523 1523 1522 1521 1520 1520 1519 1519 1519 1519 1519 1519 1519 1519 1518 1516 1516 1518 1518 1517 1517 1516 1515 1514 1513 1512 1512 1512 1512 1511 1511 1512 1513 1513 1513 1512 1512 1513 1513 1514 1516 1521 1524 1524 1524 1522 1522 1522 1522 1523 1522 1522 1521 1521 1524 1525 1524 1528 1533 1533 1532 1535 1535 1535 1536 1536 1536 1535 1534 1532
1526 1526 1526 1526 1527 1526 1527 1526 1526 1526 1526 1526 1525 1525 1524 1524 1524 1524 1524 1523 1522 1521 1521 1520 1519 1518 1518 1519 1519 1519 1520 1519 1517 1517 1518 1519 1519 1518 1517 1516 1515 1514 1513 1513 1513 1512 1512 1511 1511 1512 1512 1512 1512 1512 1512 1513 1513 1514 1517 1523 1524 1522 1523 1523 1523 1522 1522 1522 1521 1522 1522 1521 1524 1523 1524 1529 1533 1533 1533 1535 1535 1535 1536 1536 1536 1535 1534 1532
1526 1526 1527 1527 1527 1527 1527 1527 1527 1526 1526 1526 1525 1525 1525 1525 1525 1525 1524 1524 1523 1522 1522 1521 1520 1518 1519 1520 1520 1520 1519 1519 1519 1519 1520 1520 1520 1519 1518 1517 1516 1515 1514 1513 1513 1512 1512 1511 1511 1511 1512 1512 1512 1512 1513 1514 1514 1515 1518 1523 1523 1521 1523 1524 1523 1522 1521 1520 1520 1521 1522 1522 1524 1524 1525 1527 1530 1534 1535 1535 1535 1535 1536 1536 1535 1535 1534 1533
1526 1527 1527 1527 1528 1528 1528 1527 1527 1527 1526 1526 1526 1525 1525 1525 1526 1525 1525 1524 1523 1523 1523 1522 1521 1520 1520 1520 1520 1519 1518 1521 1522 1521 1521 1520 1520 1519 1518 1517 1516 1515 1514 1513 1512 1512 1511 1511 1511 1511 1511 1512 1512 1513 1514 1515 1515 1518 1521 1522 1521 1520 1522 1523 1522 1521 1520 1520 1520 1521 1522 1523 1524 1525 1527 1526 1528 1534 1535 1534 1535 1534 1535 1535 1535 1535 1534 1533
1527 1527 1528 1528 1528 1528 1528 1528 1527 1527 1527 1526 1526 1526 1526 1526 1526 1526 1525 1525 1524 1524 1523 1523 1522 1521 1521 1521 1521 1519 1518 1523 1524 1522 1522 1521 1520 1520 1518 1517 1516 1514 1513 1512 1512 1511 1511 1510 1511 1511 1511 1513 1514 1514 1516 1516 1515 1519 1522 1521 1521 1520 1520 1522 1521 1520 1520 1519 1519 1520 1522 1523 1524 1527 1528 1527 1529 1533 1533 1534 1534 1534 1535 1535 1535 1535 1534 1533
1528 1528 1528 1529 1529 1529 1528 1528 1528 1527 1527 1527 1527 1527 1527 1527 1527 1526 1526 1525 1525 1524 1524 1523 1523 1522 1522 1521 1521 1520 1519 1523 1524 1522 1522 1521 1521 1520 1518 1517 1515 1514 1513 1512 1511 1511 1511 1510 1511 1512 1512 1514 1515 1515 1516 1516 1515 1518 1522 1521 1521 1520 1520 1521 1520 1520 1520 1519 1519 1520 1522 1523 1524 1527 1529 1529 1530 1532 1532 1533 1533 1534 1535 1535 1535 1535 1534 1534
1528 1529 1529 1529 1529 1529 1529 1528 1528 1528 1528 1528 1528 1527 1527 1527 1527 1527 1527 1526 1526 1525 1524 1524 1523 1522 1522 1522 1522 1521 1522 1524 1524 1523 1522 1522 1521 1520 1519 1517 1515 1513 1512 1512 1511 1511 1511 1511 1511 1512 1513 1515 1516 1516 1516 1517 1517 1519 1520 1520 1520 1520 1520 1520 1520 1520 1519 1520 1520 1520 1521 1523 1523 1524 1527 1529 1530 1531 1531 1533 1533 1534 1535 1535 1535 1535 1535 1534
1529 1529 1530 1530 1530 1530 1529 1529 1529 1529 1529 1528 1528 1528 1528 1528 1528 1528 1527 1527 1526 1526 1525 1524 1523 1522 1522 1522 1522 1522 1524 1525 1524 1523 1523 1522 1521 1519 1519 1517 1515 1513 1512 1511 1512 1512 1512 1512 1512 1512 1514 1515 1515 1516 1516 1517 1519 1519 1519 1519 1520 1520 1520 1520 1520 1520 1520 1520 1519 1520 1523 1524 1523 1523 1527 1529 1529 1530 1531 1532 1533 1533 1534 1534 1535 1535 1534 1534
1530 1530 1530 1530 1530 1530 1530 1530 1529 1529 1529 1529 1529 1529 1529 1529 1528 1528 1528 1528 1527 1527 1526 1525 1524 1523 1523 1522 1521 1524 1527 1526 1524 1524 1523 1522 1521 1520 1519 1517 1515 1513 1512 1512 1512 1513 1513 1513 1513 1513 1514 1515 1516 1516 1516 1517 1518 1519 1519 1519 1520 1520 1520 1520 1520 1519 1519 1519 1517 1519 1522 1523 1521 1521 1526 1528 1528 1529 1530 1531 1532 1532 1533 1533 1534 1534 1534 1533
1531 1531 1531 1531 1531 1531 1530 1530 1530 1530 1529 1529 1529 1529 1529 1529 1529 1529 1528 1528 1528 1528 1527 1526 1525 1524 1524 1522 1521 1526 1528 1526 1525 1524 1523 1523 1521 1520 1519 1517 1516 1515 1513 1513 1513 1514 1514 1514 1514 1514 1514 1515 1516 1517 1518 1518 1519 1519 1520 1520 1520 1520 1520 1520 1520 1519 1518 1518 1517 1518 1521 1522 1521 1520 1522 1525 1527 1528 1529 1530 1531 1531 1532 1532 1533 1533 1533 1532
1532 1532 1532 1532 1532 1531 1531 1531 1530 1530 1530 1530 1530 1530 1530 1529 1529 1529 1529 1528 1528 1528 1527 1527 1525 1525 1524 1522 1524 1528 1528 1526 1525 1524 1524 1523 1522 1520 1519 1518 1518 1517 1516 1515 1515 1515 1515 1516 1515 1514 1515 1517 1518 1519 1519 1520 1520 1520 1520 1521 1521 1521 1521 1519 1519 1519 1517 1518 1517 1518 1521 1522 1521 1520 1520 1523 1526 1527 1528 1528 1529 1530 1530 1531 1531 1531 1531 1531
1532 1532 1532 1532 1532 1531 1531 1531 1531 1530 1530 1531 1531 1530 1530 1530 1530 1530 1529 1529 1528 1528 1528 1527 1526 1526 1524 1524 1528 1529 1527 1526 1526 1525 1524 1523 1522 1521 1520 1520 1520 1519 1518 1517 1517 1517 1517 1517 1516 1516 1516 1517 1519 1520 1520 1520 1520 1521 1521 1521 1523 1524 1523 1519 1518 1518 1517 1518 1517 1518 1521 1520 1520 1520 1521 1523 1524 1525 1526 1527 1528 1528 1529 1529 1530 1530 1530 1530
1533 1533 1532 1532 1532 1532 1532 1532 1531 1531 1531 1531 1531 1531 1531 1530 1530 1530 1529 1529 1528 1528 1528 1527 1527 1526 1524 1526 1529 1529 1528 1528 1527 1526 1524 1523 1523 1522 1521 1521 1520 1520 1520 1520 1520 1519 1519 1518 1516 1516 1517 1519 1520 1520 1521 1521 1521 1522 1521 1522 1527 1527 1523 1520 1518 1518 1518 1518 1517 1518 1520 1519 1521 1521 1520 1522 1522 1523 1524 1525 1526 1527 1527 1528 1528 1528 1528 1528
1533 1533 1533 1533 1533 1533 1533 1533 1532 1532 1532 1532 1532 1532 1531 1531 1531 1530 1530 1530 1529 1529 1529 1528 1527 1526 1526 1528 1530 1529 1529 1528 1527 1526 1525 1524 1523 1523 1523 1522 1521 1521 1521 1521 1521 1521 1520 1519 1517 1518 1520 1519 1520 1521 1522 1522 1523 1524 1523 1525 1530 1530 1525 1521 1519 1519 1519 1518 1517 1519 1520 1519 1520 1520 1519 1521 1521 1521 1522 1524 1525 1525 1526 1526 1526 1526 1527 1527
1534 1534 1534 1534 1534 1534 1534 1534 1533 1533 1533 1533 1532 1532 1532 1532 1531 1531 1531 1530 1530 1530 1529 1528 1528 1526 1527 1530 1530 1530 1529 1528 1527 1527 1526 1525 1524 1524 1524 1523 1523 1522 1521 1521 1521 1521 1521 1520 1519 1521 1521 1520 1523 1523 1524 1526 1527 1529 1529 1529 1531 1530 1529 1524 1519 1519 1519 1518 1517 1518 1518 1517 1518 1518 1518 1519 1519 1520 1521 1522 1523 1524 1524 1525 1525 1525 1525 1526
1535 1535 1535 1535 1535 1535 1535 1535 1534 1534 1534 1533 1533 1532 1532 1531 1531 1531 1531 1531 1530 1530 1529 1529 1529 1527 1529 1531 1532 1531 1530 1529 1528 1527 1526 1526 1525 1525 1524 1523 1523 1522 1521 1521 1521 1520 1520 1520 1521 1523 1523 1525 1527 1524 1523 1528 1530 1532 1534 1534 1532 1531 1531 1527 1521 1519 1519 1519 1517 1517 1516 1514 1514 1515 1516 1517 1517 1518 1519 1520 1521 1522 1523 1523 1524 1524 1524 1524
1536 1536 1536 1536 1537 1537 1537 1536 1536 1535 1535 1535 1534 1533 1533 1532 1532 1532 1531 1531 1531 1530 1530 1530 1528 1530 1533 1534 1534 1534 1532 1531 1529 1528 1527 1527 1526 1525 1525 1524 1523 1522 1521 1521 1522 1520 1520 1522 1523 1525 1527 1529 1531 1527 1527 1532 1534 1536 1538 1537 1536 1533 1531 1527 1523 1519 1518 1518 1517 1516 1515 1513 1515 1515 1514 1515 1515 1516 1517 1519 1520 1520 1522 1522 1522 1523 1523 1523
1536 1537 1537 1537 1538 1538 1538 1537 1537 1536 1536 1535 1535 1535 1534 1534 1533 1532 1532 1532 1532 1533 1535 1535 1533 1536 1539 1537 1536 1535 1534 1532 1531 1529 1528 1527 1526 1526 1525 1524 1523 1522 1521 1522 1523 1522 1522 1524 1526 1528 1533 1535 1537 1536 1535 1537 1538 1539 1540 1540 1539 1537 1531 1526 1524 1520 1518 1518 1515 1514 1513 1511 1514 1515 1514 1514 1514 1515 1516 1517 1519 1519 1520 1521 1522 1522 1522 1523
1537 1538 1538 1539 1539 1538 1538 1538 1537 1537 1536 1536 1536 1535 1535 1535 1534 1535 1535 1533 1535 1538 1540 1540 1539 1540 1541 1539 1537 1535 1534 1533 1532 1530 1529 1528 1527 1526 1525 1524 1523 1523 1523 1524 1525 1524 1523 1529 1535 1538 1540 1540 1540 1540 1539 1539 1539 1539 1539 1539 1538 1537 1532 1526 1523 1520 1519 1518 1513 1512 1513 1511 1511 1511 1511 1512 1512 1513 1515 1516 1517 1518 1520 1520 1521 1522 1522 1522
1538 1539 1539 1539 1539 1539 1539 1539 1538 1537 1537 1536 1536 1535 1535 1535 1536 1538 1538 1537 1540 1541 1541 1542 1541 1541 1541 1540 1538 1536 1535 1534 1533 1531 1530 1528 1527 1526 1526 1525 1525 1525 1526 1525 1526 1526 1526 1533 1542 1542 1541 1541 1540 1540 1540 1539 1538 1538 1538 1538 1536 1535 1532 1525 1523 1520 1518 1519 1514 1510 1512 1509 1506 1507 1509 1510 1511 1512 1512 1514 1516 1517 1519 1520 1521 1521 1521 1521
1539 1540 1540 1540 1540 1540 1540 1539 1539 1538 1538 1538 1537 1537 1536 1536 1537 1538 1538 1540 1542 1542 1542 1543 1542 1542 1541 1541 1540 1539 1537 1534 1533 1532 1530 1529 1527 1527 1528 1528 1528 1530 1529 1527 1528 1531 1533 1539 1543 1541 1541 1541 1540 1540 1540 1539 1538 1538 1538 1537 1535 1534 1531 1524 1520 1520 1520 1521 1514 1508 1511 1508 1503 1504 1507 1508 1509 1511 1511 1513 1515 1517 1518 1519 1520 1520 1520 1520
1540 1541 1541 1541 1541 1540 1540 1540 1540 1539 1539 1539 1539 1538 1538 1538 1538 1539 1539 1540 1543 1543 1543 1543 1542 1542 1542 1541 1541 1540 1538 1537 1537 1535 1533 1531 1530 1530 1531 1531 1532 1533 1533 1532 1532 1535 1540 1543 1542 1540 1540 1539 1539 1539 1539 1537 1537 1539 1538 1537 1537 1535 1535 1527 1518 1519 1521 1520 1513 1508 1510 1507 1503 1504 1507 1509 1509 1510 1512 1513 1515 1516 1517 1518 1519 1519 1519 1518
1541 1541 1541 1541 1541 1541 1541 1541 1540 1540 1540 1540 1539 1539 1539 1539 1539 1540 1540 1540 1543 1544 1544 1544 1544 1543 1543 1543 1542 1540 1540 1541 1541 1538 1537 1535 1533 1533 1534 1535 1536 1537 1539 1539 1538 1540 1543 1543 1540 1539 1539 1538 1540 1539 1539 1538 1538 1539 1538 1537 1537 1534 1535 1531 1524 1521 1518 1515 1512 1510 1509 1503 1502 1507 1508 1510 1511 1511 1512 1513 1514 1515 1516 1518 1518 1518 1518 1516
1542 1542 1542 1542 1542 1541 1541 1541 1541 1540 1540 1540 1540 1540 1540 1540 1540 1540 1540 1542 1545 1545 1545 1545 1545 1544 1544 1543 1542 1541 1541 1542 1543 1542 1539 1537 1536 1535 1536 1537 1537 1540 1543 1542 1540 1541 1543 1541 1539 1539 1538 1539 1539 1538 1540 1540 1539 1540 1536 1534 1534 1532 1532 1529 1526 1526 1520 1513 1510 1512 1514 1506 1501 1506 1508 1510 1511 1511 1513 1513 1514 1515 1516 1517 1517 1516 1516 1515
1542 1542 1542 1542 1542 1541 1541 1541 1541 1541 1541 1540 1540 1539 1540 1540 1540 1540 1541 1545 1549 1548 1547 1546 1546 1546 1545 1544 1542 1540 1542 1543 1544 1544 1541 1539 1538 1537 1538 1539 1539 1541 1542 1541 1541 1542 1541 1540 1540 1540 1539 1539 1539 1539 1540 1540 1541 1540 1533 1531 1531 1530 1530 1525 1525 1529 1525 1516 1510 1512 1520 1515 1503 1500 1505 1510 1512 1512 1513 1514 1514 1515 1516 1516 1516 1516 1515 1515
1543 1543 1543 1542 1542 1542 1542 1542 1541 1541 1540 1540 1540 1539 1540 1540 1540 1541 1542 1550 1554 1551 1549 1548 1548 1548 1547 1547 1543 1542 1547 1547 1544 1544 1542 1540 1539 1537 1539 1541 1541 1541 1541 1541 1541 1541 1541 1540 1540 1540 1540 1539 1539 1539 1539 1539 1541 1536 1529 1530 1530 1528 1528 1524 1525 1530 1526 1519 1513 1510 1514 1514 1505 1501 1506 1510 1512 1514 1514 1513 1514 1515 1515 1515 1515 1515 1515 1514
1543 1543 1543 1542 1542 1542 1542 1542 1542 1541 1540 1540 1540 1539 1540 1539 1540 1541 1544 1556 1560 1553 1552 1552 1550 1550 1549 1549 1546 1545 1550 1549 1545 1545 1543 1541 1540 1537 1539 1542 1542 1541 1540 1540 1541 1541 1542 1541 1541 1541 1541 1540 1538 1538 1538 1539 1539 1533 1529 1531 1530 1528 1526 1522 1524 1526 1524 1521 1516 1510 1510 1513 1507 1503 1510 1512 1511 1514 1514 1513 1514 1514 1514 1514 1514 1515 1514 1514
1543 1543 1543 1543 1543 1542 1542 1542 1541 1541 1540 1540 1540 1540 1540 1540 1541 1541 1546 1559 1561 1555 1554 1553 1550 1551 1550 1548 1548 1548 1549 1548 1547 1547 1543 1542 1540 1538 1540 1541 1541 1540 1539 1540 1540 1541 1542 1541 1542 1542 1541 1541 1538 1536 1537 1537 1535 1531 1530 1530 1528 1527 1523 1520 1523 1521 1521 1520 1514 1510 1513 1518 1512 1503 1508 1512 1509 1512 1513 1512 1514 1513 1513 1514 1514 1515 1514 1513
1543 1543 1543 1543 1542 1542 1542 1541 1541 1541 1540 1540 1540 1540 1540 1541 1542 1545 1553 1561 1560 1556 1556 1553 1553 1554 1551 1549 1548 1549 1549 1548 1549 1547 1544 1544 1542 1539 1540 1540 1540 1541 1541 1541 1540 1542 1543 1542 1542 1541 1540 1540 1538 1536 1535 1535 1534 1530 1531 1530 1526 1525 1521 1518 1519 1518 1520 1517 1511 1513 1515 1519 1518 1507 1506 1510 1508 1509 1512 1512 1512 1512 1514 1515 1515 1515 1513 1512
1543 1543 1543 1542 1542 1542 1541 1541 1541 1541 1540 1540 1541 1540 1541 1542 1543 1551 1561 1563 1560 1559 1557 1555 1557 1557 1555 1555 1554 1553 1551 1550 1549 1548 1546 1546 1544 1542 1542 1543 1545 1542 1541 1542 1543 1543 1543 1541 1541 1540 1540 1540 1539 1537 1533 1533 1534 1531 1533 1533 1526 1523 1520 1517 1516 1518 1521 1515 1509 1513 1512 1514 1519 1509 1504 1508 1508 1509 1510 1510 1512 1513 1514 1515 1514 1513 1512 1511
1543 1543 1542 1542 1541 1541 1540 1540 1540 1540 1540 1540 1540 1540 1541 1544 1550 1560 1565 1561 1560 1562 1561 1561 1561 1559 1560 1560 1559 1558 1556 1553 1551 1550 1551 1551 1553 1554 1553 1556 1557 1549 1545 1548 1547 1544 1541 1540 1541 1540 1539 1540 1539 1537 1534 1533 1533 1532 1534 1535 1533 1533 1530 1526 1524 1524 1522 1513 1509 1512 1511 1511 1512 1505 1502 1506 1507 1508 1508 1509 1512 1513 1513 1513 1513 1512 1510 1508
1543 1542 1541 1541 1540 1540 1539 1539 1539 1539 1540 1540 1540 1540 1541 1547 1558 1569 1568 1562 1563 1565 1565 1566 1564 1563 1562 1559 1560 1561 1558 1556 1554 1552 1553 1554 1556 1560 1560 1562 1562 1557 1553 1553 1552 1548 1542 1540 1541 1540 1538 1539 1539 1538 1536 1534 1534 1535 1535 1535 1539 1544 1546 1544 1539 1533 1524 1512 1506 1511 1515 1514 1507 1501 1502 1504 1504 1506 1507 1509 1511 1512 1513 1513 1511 1509 1506 1502
1543 1542 1541 1540 1539 1539 1539 1539 1539 1540 1540 1540 1540 1540 1543 1552 1565 1571 1570 1567 1568 1567 1567 1567 1565 1563 1562 1561 1563 1563 1559 1557 1557 1555 1554 1555 1557 1560 1561 1561 1562 1561 1560 1557 1556 1555 1550 1543 1540 1539 1538 1539 1539 1539 1539 1538 1537 1537 1536 1537 1539 1544 1551 1553 1545 1537 1530 1518 1511 1513 1515 1511 1503 1500 1501 1501 1503 1507 1509 1510 1512 1511 1510 1508 1505 1504 1501 1499
1542 1541 1541 1539 1538 1539 1538 1539 1539 1539 1539 1539 1540 1543 1550 1561 1569 1571 1571 1572 1571 1569 1568 1567 1565 1561 1561 1563 1565 1565 1562 1560 1558 1558 1557 1559 1562 1563 1563 1564 1564 1564 1562 1558 1557 1559 1555 1546 1540 1540 1539 1539 1539 1539 1539 1539 1537 1537 1537 1537 1538 1539 1544 1547 1542 1537 1536 1532 1523 1516 1509 1501 1498 1498 1499 1501 1504 1507 1510 1510 1508 1506 1504 1503 1502 1501 1500 1501
1542 1542 1541 1540 1539 1539 1539 1539 1539 1539 1540 1538 1541 1551 1562 1569 1572 1573 1574 1574 1573 1573 1569 1565 1565 1563 1563 1564 1564 1564 1565 1562 1560 1559 1559 1562 1565 1565 1566 1566 1566 1566 1564 1561 1560 1560 1557 1546 1540 1541 1539 1538 1539 1539 1539 1539 1536 1536 1538 1536 1536 1538 1540 1543 1542 1537 1539 1539 1524 1509 1504 1501 1500 1500 1499 1503 1506 1506 1507 1506 1504 1504 1503 1502 1502 1501 1502 1502
1543 1542 1541 1540 1540 1539 1540 1540 1539 1539 1539 1537 1545 1561 1572 1575 1576 1577 1576 1574 1574 1575 1570 1565 1567 1568 1568 1567 1564 1564 1564 1562 1561 1560 1560 1563 1565 1566 1567 1567 1567 1567 1566 1566 1564 1562 1561 1551 1542 1541 1538 1536 1539 1538 1537 1538 1537 1537 1538 1536 1536 1538 1539 1543 1546 1541 1542 1541 1521 1505 1506 1509 1509 1507 1501 1503 1507 1507 1506 1506 1505 1504 1503 1502 1503 1503 1503 1502
1543 1543 1541 1541 1541 1541 1540 1539 1540 1539 1537 1542 1557 1570 1574 1575 1577 1577 1576 1574 1575 1574 1570 1569 1570 1571 1571 1570 1567 1567 1565 1562 1562 1562 1562 1563 1564 1566 1569 1568 1568 1567 1567 1568 1565 1563 1565 1556 1543 1539 1539 1538 1539 1539 1537 1536 1537 1537 1536 1536 1538 1540 1540 1544 1548 1546 1546 1543 1524 1508 1508 1511 1509 1506 1503 1505 1509 1509 1508 1507 1505 1504 1505 1505 1504 1503 1502 1501
1544 1543 1542 1543 1542 1542 1541 1541 1541 1539 1538 1550 1566 1572 1574 1576 1577 1576 1575 1575 1575 1573 1572 1573 1574 1572 1572 1572 1571 1570 1568 1566 1566 1565 1564 1564 1564 1566 1569 1569 1568 1567 1567 1567 1566 1564 1564 1560 1548 1539 1539 1540 1539 1539 1537 1535 1537 1537 1537 1538 1540 1541 1543 1545 1545 1545 1547 1543 1531 1516 1508 1508 1505 1501 1503 1508 1508 1508 1508 1506 1506 1507 1507 1507 1505 1503 1501 1499
1544 1543 1544 1545 1543 1543 1543 1542 1541 1542 1547 1560 1570 1572 1574 1576 1576 1576 1575 1575 1575 1574 1574 1575 1575 1573 1573 1574 1573 1572 1571 1570 1569 1567 1565 1566 1565 1565 1569 1570 1568 1568 1567 1566 1566 1564 1563 1563 1554 1542 1541 1542 1539 1538 1538 1537 1538 1539 1540 1541 1541 1540 1542 1543 1542 1541 1543 1542 1538 1529 1512 1503 1502 1499 1502 1506 1506 1506 1507 1505 1507 1507 1506 1506 1504 1502 1500 1498
1543 1544 1546 1546 1544 1544 1543 1543 1546 1551 1559 1567 1571 1573 1575 1575 1575 1576 1576 1575 1575 1575 1575 1575 1575 1574 1574 1574 1574 1574 1573 1571 1570 1568 1566 1567 1567 1565 1568 1571 1569 1569 1567 1564 1565 1566 1563 1562 1557 1550 1547 1543 1538 1539 1540 1540 1540 1539 1539 1540 1540 1540 1542 1547 1543 1538 1540 1538 1535 1535 1520 1501 1498 1499 1500 1503 1504 1505 1506 1506 1507 1506 1505 1504 1502 1501 1499 1497
1544 1546 1547 1546 1545 1545 1544 1549 1557 1560 1565 1570 1571 1573 1575 1575 1576 1576 1575 1575 1575 1574 1575 1575 1575 1576 1576 1575 1574 1575 1575 1572 1570 1568 1567 1567 1568 1567 1568 1570 1570 1569 1568 1565 1566 1567 1566 1565 1562 1557 1551 1542 1538 1540 1541 1541 1539 1539 1540 1539 1539 1541 1542 1546 1543 1536 1539 1537 1530 1534 1524 1502 1495 1496 1497 1500 1503 1504 1506 1507 1506 1505 1504 1502 1500 1498 1497 1494
1545 1547 1548 1547 1547 1546 1546 1554 1564 1566 1569 1573 1573 1574 1575 1575 1576 1576 1576 1575 1575 1575 1575 1575 1576 1576 1576 1576 1576 1576 1575 1572 1569 1568 1568 1568 1568 1569 1569 1569 1569 1569 1569 1566 1566 1567 1566 1565 1562 1554 1546 1539 1538 1540 1540 1540 1539 1538 1538 1538 1539 1540 1538 1540 1540 1540 1544 1538 1533 1537 1523 1497 1490 1493 1495 1500 1503 1505 1506 1506 1506 1504 1502 1500 1498 1496 1494 1492
1547 1548 1548 1547 1548 1547 1548 1555 1564 1570 1573 1574 1574 1575 1575 1576 1576 1576 1576 1576 1575 1576 1576 1576 1577 1576 1576 1577 1577 1576 1574 1572 1569 1569 1569 1568 1568 1568 1569 1569 1569 1569 1569 1567 1567 1567 1564 1561 1560 1556 1550 1543 1539 1539 1539 1539 1540 1538 1537 1538 1538 1537 1538 1539 1540 1545 1545 1533 1531 1537 1516 1488 1485 1491 1495 1500 1503 1505 1506 1506 1505 1503 1501 1499 1497 1495 1493 1490
1548 1549 1550 1550 1548 1549 1552 1557 1562 1568 1573 1573 1574 1576 1575 1576 1577 1577 1577 1576 1576 1577 1576 1577 1577 1577 1577 1577 1576 1575 1575 1573 1570 1570 1570 1569 1568 1568 1568 1569 1569 1569 1569 1568 1569 1569 1565 1563 1563 1562 1562 1558 1551 1546 1541 1540 1540 1538 1536 1539 1538 1538 1540 1539 1540 1546 1542 1527 1526 1530 1511 1487 1486 1493 1496 1500 1503 1504 1505 1504 1503 1502 1500 1498 1496 1493 1491 1488
1549 1551 1554 1554 1552 1552 1557 1561 1561 1565 1570 1571 1572 1576 1576 1577 1577 1577 1577 1577 1577 1577 1577 1577 1577 1577 1577 1576 1575 1575 1574 1574 1573 1571 1570 1569 1567 1568 1568 1568 1569 1569 1569 1569 1569 1569 1568 1566 1563 1561 1561 1560 1554 1547 1544 1545 1544 1540 1537 1536 1537 1539 1540 1540 1544 1541 1532 1526 1523 1517 1507 1497 1494 1497 1500 1502 1504 1505 1504 1502 1501 1499 1498 1496 1494 1491 1488 1486
1550 1554 1557 1557 1557 1558 1560 1563 1564 1565 1567 1569 1572 1576 1577 1577 1578 1577 1577 1577 1577 1577 1577 1578 1578 1577 1577 1577 1577 1575 1573 1573 1573 1571 1571 1570 1569 1569 1568 1568 1569 1569 1569 1570 1569 1569 1569 1565 1561 1560 1558 1555 1552 1548 1546 1547 1546 1541 1538 1535 1534 1539 1541 1542 1542 1531 1525 1529 1519 1503 1505 1509 1503 1501 1503 1504 1506 1505 1503 1501 1499 1497 1495 1494 1491 1488 1485 1483
1552 1557 1559 1558 1559 1562 1564 1565 1566 1566 1567 1569 1573 1577 1577 1577 1578 1577 1577 1577 1577 1578 1577 1577 1578 1579 1578 1579 1578 1576 1574 1572 1571 1570 1571 1571 1571 1569 1567 1567 1569 1569 1569 1570 1569 1569 1569 1565 1562 1560 1557 1553 1552 1549 1546 1546 1545 1541 1538 1533 1531 1536 1539 1538 1535 1526 1527 1532 1517 1503 1510 1515 1507 1505 1505 1505 1506 1505 1502 1500 1498 1495 1493 1491 1488 1485 1483 1480
1553 1557 1559 1560 1561 1565 1566 1567 1567 1568 1568 1570 1574 1577 1577 1577 1577 1578 1578 1578 1577 1578 1578 1576 1577 1579 1579 1579 1578 1576 1575 1573 1572 1571 1571 1571 1572 1571 1568 1567 1568 1569 1570 1570 1569 1570 1569 1564 1562 1561 1557 1552 1551 1548 1545 1545 1543 1537 1533 1530 1529 1531 1533 1533 1530 1527 1528 1526 1517 1514 1517 1514 1508 1507 1507 1507 1507 1505 1501 1499 1496 1494 1491 1488 1485 1483 1480 1477
1553 1555 1557 1559 1562 1566 1567 1568 1568 1568 1569 1571 1572 1576 1578 1577 1577 1578 1579 1578 1577 1578 1578 1577 1578 1579 1578 1578 1578 1576 1575 1575 1574 1573 1573 1573 1573 1572 1571 1569 1568 1570 1570 1569 1570 1570 1567 1563 1562 1562 1558 1551 1547 1545 1543 1542 1540 1536 1532 1530 1529 1528 1529 1531 1530 1528 1528 1524 1519 1520 1518 1511 1507 1508 1508 1507 1506 1502 1499 1496 1493 1491 1489 1485 1482 1480 1477 1475
1553 1554 1556 1557 1563 1568 1568 1568 1569 1568 1570 1572 1573 1576 1578 1577 1578 1578 1578 1579 1578 1578 1578 1578 1578 1578 1577 1577 1577 1575 1575 1575 1574 1573 1573 1574 1574 1573 1572 1570 1570 1571 1570 1570 1570 1570 1569 1566 1563 1564 1561 1550 1543 1542 1541 1540 1539 1535 1530 1529 1529 1528 1528 1530 1529 1527 1528 1526 1522 1521 1517 1510 1506 1507 1508 1506 1503 1500 1497 1493 1491 1488 1486 1483 1480 1478 1475 1472
1555 1556 1556 1557 1563 1569 1569 1569 1570 1569 1571 1575 1576 1576 1577 1577 1578 1578 1577 1578 1579 1578 1578 1579 1578 1578 1576 1576 1575 1575 1575 1574 1573 1572 1572 1572 1572 1572 1572 1571 1571 1571 1570 1571 1571 1570 1571 1568 1564 1567 1563 1547 1540 1544 1544 1540 1536 1529 1527 1530 1531 1529 1528 1529 1527 1526 1527 1527 1525 1521 1516 1510 1508 1508 1506 1503 1501 1499 1496 1492 1489 1486 1483 1481 1479 1477 1474 1471